QPF
0.00 0.00 0.00 0.00 0.00 0.00 0.00 0.00 0.02 0.07 0.02 0.00 0.00 0.00 0.00 0.01 0.00 0.00 0.00 0.00 0.00 0.00 0.00 0.00 0.00 0.00 0.00 0.00 0.00 0.00 0.00 0.00
0.00 0.00 0.00 0.00 0.00 0.00 0.00 0.00 0.03 0.02 0.00 0.00 0.00 0.00 0.00 0.00 0.00 0.00 0.00 0.00 0.00 0.00 0.00 0.00 0.00 0.00 0.00 0.00 0.00 0.00 0.00 0.00
0.00 0.00 0.00 0.00 0.00 0.00 0.01 0.01 0.00 0.00 0.00 0.00 0.00 0.00 0.00 0.00 0.00 0.00 0.00 0.00 0.00 0.00 0.00 0.00 0.00 0.00 0.00 0.00 0.00 0.00 0.00 0.00
0.00 0.00 0.00 0.00 0.00 0.01 0.03 0.02 0.01 0.00 0.00 0.00 0.00 0.00 0.00 0.00 0.00 0.00 0.00 0.00 0.00 0.00 0.00 0.00 0.00 0.00 0.00 0.00 0.00 0.00 0.00 0.00
0.00 0.00 0.00 0.00 0.00 0.00 0.00 0.00 0.00 0.00 0.00 0.00 0.00 0.00 0.00 0.00 0.00 0.00 0.00 0.00 0.00 0.00 0.00 0.00 0.00 0.00 0.00 0.00 0.00 0.00 0.00 0.00
0.00 0.00 0.00 0.00 0.00 0.00 0.00 0.00 0.00 0.00 0.00 0.00 0.00 0.00 0.00 0.00 0.00 0.00 0.00 0.00 0.00 0.00 0.00 0.00 0.00 0.00 0.00 0.00 0.00 0.00 0.00 0.00
0.00 0.00 0.00 0.00 0.00 0.00 0.00 0.00 0.00 0.00 0.00 0.00 0.00 0.00 0.00 0.00 0.00 0.00 0.00 0.00 0.00 0.00 0.00 0.00 0.00 0.00 0.00 0.00 0.00 0.00 0.00 0.00
0.00 0.00 0.00 0.00 0.00 0.00 0.00 0.00 0.00 0.00 0.00 0.00 0.00 0.00 0.00 0.00 0.00 0.00 0.00 0.00 0.00 0.00 0.00 0.00 0.00 0.00 0.00 0.00 0.00 0.00 0.01 0.02
0.00 0.00 0.00 0.00 0.00 0.00 0.00 0.00 0.00 0.00 0.00 0.00 0.00 0.00 0.00 0.00 0.00 0.00 0.00 0.00 0.00 0.00 0.00 0.00 0.00 0.00 0.00 0.00 0.00 0.00 0.02 0.03
0.00 0.00 0.00 0.00 0.00 0.00 0.00 0.00 0.00 0.00 0.00 0.00 0.00 0.00 0.00 0.00 0.00 0.00 0.00 0.00 0.00 0.00 0.00 0.00 0.00 0.00 0.00 0.00 0.00 0.01 0.01 0.02
0.00 0.00 0.00 0.00 0.00 0.00 0.00 0.00 0.00 0.00 0.00 0.00 0.00 0.00 0.00 0.00 0.00 0.00 0.00 0.00 0.00 0.00 0.00 0.00 0.00 0.00 0.00 0.00 0.00 0.02 0.04 0.03
0.00 0.00 0.00 0.00 0.00 0.00 0.00 0.00 0.00 0.00 0.00 0.00 0.00 0.00 0.00 0.00 0.00 0.00 0.00 0.00 0.00 0.00 0.00 0.00 0.00 0.00 0.00 0.00 0.02 0.02 0.02 0.00
0.00 0.00 0.00 0.00 0.00 0.00 0.00 0.00 0.00 0.00 0.00 0.00 0.00 0.00 0.00 0.00 0.00 0.00 0.00 0.00 0.00 0.00 0.00 0.00 0.00 0.00 0.00 0.02 0.01 0.00 0.00 0.00
0.00 0.00 0.00 0.00 0.00 0.00 0.00 0.00 0.00 0.00 0.00 0.00 0.00 0.00 0.00 0.00 0.00 0.00 0.00 0.00 0.00 0.00 0.00 0.00 0.00 0.00 0.00 0.00 0.00 0.00 0.00 0.00
0.00 0.00 0.00 0.00 0.00 0.00 0.00 0.00 0.00 0.00 0.00 0.00 0.00 0.00 0.00 0.00 0.00 0.00 0.00 0.00 0.00 0.00 0.00 0.00 0.00 0.00 0.00 0.00 0.00 0.00 0.00 0.00
0.00 0.00 0.00 0.00 0.00 0.00 0.00 0.00 0.00 0.00 0.00 0.00 0.00 0.00 0.00 0.00 0.00 0.00 0.00 0.00 0.00 0.00 0.00 0.00 0.00 0.00 0.00 0.00 0.00 0.00 0.00 0.00
0.00 0.00 0.00 0.00 0.00 0.00 0.00 0.00 0.00 0.00 0.00 0.00 0.00 0.00 0.00 0.00 0.00 0.00 0.00 0.00 0.00 0.00 0.00 0.00 0.00 0.00 0.00 0.00 0.00 0.00 0.00 0.00
0.00 0.00 0.00 0.00 0.00 0.00 0.00 0.00 0.00 0.00 0.00 0.00 0.00 0.00 0.00 0.00 0.00 0.00 0.00 0.00 0.00 0.00 0.00 0.00 0.00 0.00 0.00 0.00 0.00 0.00 0.00 0.00
0.00 0.00 0.00 0.00 0.00 0.00 0.00 0.00 0.00 0.00 0.00 0.00 0.00 0.00 0.00 0.00 0.00 0.00 0.00 0.00 0.00 0.00 0.00 0.00 0.00 0.00 0.00 0.00 0.00 0.00 0.00 0.00
MSLP
1013.28 1013.69 1013.83 1014.40 1015.26 1016.68 1017.62 1018.41 1019.43 1020.06 1020.33 1020.78 1021.52 1021.81 1022.35 1022.92 1022.43 1022.53 1023.06 1023.14 1023.27 1023.27 1023.46 1023.72 1023.59 1023.48 1023.59 1023.98 1023.94 1023.50 1023.29 1022.86
1013.89 1014.02 1014.22 1014.70 1015.48 1016.74 1017.48 1018.37 1019.28 1019.77 1019.99 1020.28 1020.86 1021.21 1021.73 1022.14 1022.34 1022.70 1022.78 1022.98 1023.26 1023.16 1023.06 1023.41 1023.79 1023.60 1024.03 1024.01 1023.98 1023.70 1023.41 1023.14
1013.83 1014.29 1014.70 1015.08 1015.67 1016.67 1017.72 1018.46 1019.10 1019.21 1019.18 1019.64 1019.89 1020.49 1021.07 1021.19 1021.79 1022.60 1022.73 1022.98 1023.07 1023.22 1023.63 1023.51 1023.78 1023.91 1023.72 1023.78 1024.01 1023.92 1023.71 1023.56
1013.41 1014.13 1014.67 1015.31 1016.02 1016.90 1017.57 1018.18 1018.64 1018.37 1018.64 1019.27 1019.66 1020.16 1020.79 1021.39 1021.96 1022.27 1022.52 1023.00 1023.14 1023.44 1023.68 1023.86 1023.90 1023.85 1023.71 1023.87 1023.92 1024.09 1023.89 1023.83
1012.92 1013.78 1014.71 1015.53 1016.31 1017.08 1017.15 1017.35 1017.52 1018.21 1018.87 1019.16 1019.46 1019.50 1019.86 1020.25 1020.95 1021.66 1022.38 1023.18 1023.34 1023.42 1023.53 1023.81 1023.94 1023.93 1023.91 1023.75 1023.60 1024.01 1023.97 1023.68
1012.67 1013.65 1014.41 1014.87 1015.58 1015.96 1016.06 1016.90 1017.63 1018.52 1018.94 1018.98 1019.45 1019.63 1020.34 1020.96 1021.60 1022.21 1022.56 1022.74 1023.03 1023.12 1023.28 1023.52 1023.76 1023.71 1023.51 1023.57 1023.67 1023.82 1023.85 1023.69
1012.48 1013.22 1013.90 1014.70 1015.60 1015.96 1016.48 1017.21 1017.86 1018.66 1019.09 1019.46 1019.69 1020.24 1020.60 1021.04 1021.61 1022.03 1022.06 1022.30 1022.46 1022.64 1022.90 1023.16 1023.36 1023.38 1023.22 1023.11 1023.22 1023.62 1023.63 1023.80
1012.44 1013.28 1014.04 1014.94 1015.81 1016.42 1017.00 1017.42 1018.13 1018.89 1019.38 1019.79 1020.29 1020.69 1021.17 1021.49 1021.90 1022.10 1022.43 1022.54 1022.66 1022.93 1023.32 1023.54 1023.40 1023.32 1023.18 1023.02 1023.39 1023.56 1023.49 1023.43
1012.53 1013.33 1014.03 1015.07 1016.02 1016.66 1017.08 1017.57 1018.22 1018.97 1019.47 1020.01 1020.57 1021.13 1021.45 1021.77 1022.04 1022.56 1022.76 1022.93 1023.10 1023.36 1023.67 1023.64 1023.48 1023.28 1023.02 1022.74 1022.64 1022.84 1022.98 1023.21
1012.42 1013.27 1014.05 1015.03 1015.88 1016.56 1017.04 1017.49 1018.12 1018.94 1019.70 1020.41 1020.99 1021.50 1021.88 1022.25 1022.52 1022.78 1022.87 1023.11 1023.17 1023.30 1023.56 1023.46 1023.28 1023.06 1022.81 1022.55 1022.39 1022.45 1022.85 1022.94
1012.27 1013.05 1014.05 1014.89 1015.80 1016.62 1017.16 1017.55 1018.26 1019.42 1020.07 1020.64 1021.13 1021.56 1022.01 1022.21 1022.51 1022.66 1022.91 1023.14 1023.41 1023.48 1023.45 1023.31 1023.13 1022.87 1022.52 1022.22 1022.14 1022.29 1022.61 1022.76
1012.01 1012.98 1013.93 1014.86 1015.76 1016.80 1017.47 1017.85 1018.57 1019.31 1019.93 1020.54 1021.16 1021.53 1021.78 1022.22 1022.34 1022.55 1022.83 1023.20 1023.30 1023.27 1023.13 1022.98 1022.76 1022.46 1022.01 1022.20 1022.31 1022.48 1022.46 1022.48
1011.33 1012.58 1013.67 1014.72 1015.70 1016.61 1017.29 1017.83 1018.40 1018.99 1019.84 1020.61 1021.19 1021.30 1021.49 1021.80 1022.01 1022.38 1022.75 1023.04 1023.11 1023.05 1023.00 1022.80 1022.50 1022.37 1022.58 1022.59 1022.29 1022.45 1022.65 1022.87
1010.76 1012.13 1013.45 1014.58 1015.56 1016.28 1017.04 1017.82 1018.19 1019.04 1019.96 1020.25 1020.51 1020.98 1021.28 1021.49 1021.78 1022.17 1022.56 1022.80 1022.89 1022.89 1022.72 1022.57 1022.63 1022.89 1022.91 1022.82 1022.62 1022.68 1022.89 1022.96
1010.63 1011.90 1013.25 1014.31 1015.21 1016.04 1016.93 1017.69 1018.16 1019.09 1019.48 1019.91 1020.11 1020.57 1021.06 1021.29 1021.63 1022.02 1022.40 1022.67 1022.78 1022.62 1022.41 1022.22 1022.44 1022.63 1022.85 1022.99 1022.98 1022.92 1022.78 1022.77
1010.78 1011.83 1012.86 1013.91 1014.89 1015.86 1016.79 1017.56 1018.31 1019.08 1019.60 1019.61 1019.89 1020.56 1020.88 1021.20 1021.60 1021.95 1022.19 1022.41 1022.42 1022.33 1022.12 1022.29 1022.61 1022.76 1022.97 1023.45 1023.40 1023.48 1022.60 1022.46
1010.83 1011.73 1012.62 1013.56 1014.63 1015.65 1016.64 1017.62 1018.65 1018.96 1019.38 1019.61 1020.03 1020.39 1020.71 1021.13 1021.55 1021.91 1022.04 1021.98 1021.97 1022.00 1021.82 1022.14 1022.51 1022.76 1023.87 1024.12 1024.44 1024.06 1023.17 1022.59
1010.56 1011.47 1012.41 1013.35 1014.46 1015.63 1016.67 1017.90 1018.34 1018.71 1019.24 1019.58 1019.94 1020.42 1020.77 1021.13 1021.35 1021.47 1021.57 1021.57 1021.70 1021.63 1021.58 1022.00 1022.45 1022.74 1023.70 1024.16 1024.74 1024.20 1023.30 1022.73
1010.44 1011.35 1012.39 1013.33 1014.51 1015.85 1017.09 1017.55 1018.27 1018.96 1019.23 1019.60 1019.94 1020.44 1020.73 1020.85 1021.03 1021.19 1021.25 1021.22 1021.26 1021.21 1021.20 1021.59 1022.07 1022.62 1023.62 1023.97 1024.56 1023.98 1023.05 1022.73
Thickness
5667 5667 5670 5665 5660 5649 5641 5634 5624 5618 5614 5608 5597 5592 5586 5579 5579 5574 5567 5562 5558 5553 5550 5544 5540 5536 5532 5526 5523 5524 5521 5521
5661 5663 5664 5660 5654 5644 5637 5628 5621 5615 5611 5606 5598 5591 5585 5578 5572 5565 5561 5556 5548 5545 5541 5535 5528 5524 5518 5515 5511 5509 5507 5506
5658 5657 5655 5652 5649 5640 5630 5623 5616 5614 5613 5606 5600 5592 5582 5577 5569 5560 5554 5548 5541 5536 5529 5525 5518 5513 5509 5504 5499 5496 5493 5489
5657 5653 5650 5647 5640 5632 5626 5621 5615 5616 5611 5602 5594 5586 5577 5569 5560 5555 5547 5538 5533 5526 5520 5512 5506 5501 5498 5492 5486 5480 5477 5472
5660 5653 5645 5640 5634 5628 5627 5623 5619 5611 5603 5596 5590 5585 5578 5573 5563 5553 5541 5530 5523 5516 5509 5502 5496 5489 5482 5477 5473 5464 5459 5455
5657 5651 5645 5644 5638 5633 5631 5622 5614 5604 5598 5595 5586 5580 5570 5561 5550 5539 5531 5523 5517 5511 5503 5494 5484 5476 5471 5466 5459 5452 5445 5439
5657 5653 5648 5641 5633 5629 5623 5615 5607 5598 5592 5585 5578 5569 5561 5552 5543 5533 5526 5517 5509 5500 5492 5483 5475 5468 5463 5457 5448 5437 5429 5417
5652 5646 5640 5633 5625 5619 5613 5608 5598 5590 5583 5575 5566 5557 5548 5539 5530 5522 5513 5506 5498 5489 5478 5470 5464 5457 5450 5444 5434 5421 5411 5400
5648 5642 5637 5627 5618 5612 5607 5600 5591 5582 5574 5565 5556 5546 5538 5529 5521 5510 5501 5493 5485 5476 5467 5459 5453 5446 5439 5430 5421 5409 5397 5383
5645 5639 5633 5623 5615 5608 5601 5594 5586 5575 5564 5553 5544 5534 5525 5515 5507 5498 5491 5482 5474 5465 5455 5448 5442 5434 5425 5416 5407 5396 5380 5367
5643 5637 5628 5620 5611 5602 5594 5586 5576 5562 5552 5543 5533 5523 5514 5506 5497 5489 5480 5470 5461 5452 5444 5437 5429 5421 5414 5405 5394 5378 5364 5349
5640 5632 5625 5614 5605 5593 5583 5575 5565 5554 5544 5533 5522 5513 5506 5495 5487 5478 5468 5458 5449 5441 5434 5426 5419 5412 5404 5390 5377 5363 5347 5332
5642 5631 5620 5607 5596 5585 5575 5566 5557 5547 5535 5523 5511 5505 5497 5487 5479 5468 5457 5447 5437 5429 5421 5414 5406 5397 5383 5370 5359 5343 5326 5309
5640 5626 5611 5598 5587 5577 5567 5556 5548 5536 5522 5514 5505 5496 5486 5477 5467 5456 5445 5435 5425 5416 5409 5401 5389 5375 5363 5350 5338 5323 5305 5291
5631 5617 5603 5592 5580 5569 5557 5547 5537 5524 5515 5504 5496 5486 5475 5466 5455 5444 5432 5422 5412 5405 5396 5388 5376 5362 5346 5331 5317 5301 5289 5278
5620 5608 5596 5584 5572 5559 5548 5537 5525 5512 5501 5495 5486 5475 5465 5454 5443 5432 5421 5411 5401 5392 5384 5372 5358 5345 5331 5313 5297 5280 5276 5268
5609 5598 5588 5576 5563 5550 5538 5525 5510 5502 5492 5484 5474 5464 5453 5442 5430 5419 5409 5401 5391 5380 5371 5357 5342 5330 5305 5290 5273 5262 5261 5257
5600 5589 5579 5567 5554 5541 5525 5510 5501 5492 5482 5472 5462 5450 5440 5429 5418 5409 5399 5389 5378 5367 5357 5340 5325 5315 5290 5274 5256 5251 5250 5247
5593 5581 5569 5557 5543 5527 5511 5502 5490 5478 5470 5459 5449 5438 5426 5417 5408 5398 5387 5377 5365 5354 5342 5326 5312 5300 5276 5261 5246 5242 5243 5239